Location: Anton
(37.3520°N, 87.3947°W)
Time: 15:38:35
(UTC+00:00)

Hubble Space Telescope - Visible Passes

Search period start: 04 December 2022 00:00
Search period end: 14 December 2022 00:00
Orbit: 530 x 534 km, 28.5° (Epoch: 04 December)

Date Brightness Start Highest point End Pass type
(mag) Time Alt. Az. Time Alt. Az. Time Alt. Az.
04 Dec 3.8 12:18:11 10° S 12:19:14 11° SSE 12:20:16 10° SE visible
05 Dec 3.6 12:04:39 10° S 12:06:29 13° SSE 12:08:19 10° SE visible
06 Dec 3.4 11:51:27 10° SSW 11:53:44 15° SSE 11:56:01 10° SE visible
07 Dec 3.3 11:38:23 10° SSW 11:40:59 16° SSE 11:43:36 10° SE visible
08 Dec 3.1 11:25:24 10° SSW 11:28:14 18° SSE 11:31:05 10° SE visible
09 Dec 2.9 11:13:03 12° SSW 11:15:30 20° S 11:18:30 10° ESE visible
10 Dec 2.7 11:01:21 18° SSW 11:02:46 21° S 11:05:53 10° ESE visible
11 Dec 2.5 10:49:34 22° S 10:50:01 22° S 10:53:14 10° ESE visible
12 Dec 2.7 10:37:44 22° SSE 10:37:44 22° SSE 10:40:31 10° SE visible
12 Dec 2.9 12:14:48 10° WSW 12:17:46 19° S 12:20:44 10° SE visible
13 Dec 3.0 10:25:51 20° SSE 10:25:51 20° SSE 10:27:48 10° SE visible
13 Dec 2.9 12:02:13 10° SW 12:05:01 18° SSW 12:07:48 10° SSE visible
